| time (UTC) | temp C | wind direction | speed KPH | gust KPH | rain 1hr cm | rain 24hr cm | rain mn cm | humidity % | barometer mb |
| 20260508194330 | 16 | 133 | 4.8 | 16.1 | 0.00 | 0.00 | 0.00 | 69 | 1009.6 |
| 20260508193833 | 16 | 153 | 8.0 | 14.5 | 0.00 | 0.00 | 0.00 | 68 | 1009.6 |
| 20260508193329 | 16 | 142 | 8.0 | 12.9 | 0.00 | 0.00 | 0.00 | 67 | 1009.7 |
| 20260508192833 | 16 | 125 | 3.2 | 12.9 | 0.00 | 0.00 | 0.00 | 67 | 1009.7 |
| 20260508192357 | 16 | 137 | 4.8 | 12.9 | 0.00 | 0.00 | 0.00 | 69 | 1009.9 |
| 20260508191832 | 16 | 138 | 4.8 | 14.5 | 0.00 | 0.00 | 0.00 | 70 | 1009.9 |
| 20260508191330 | 16 | 137 | 4.8 | 14.5 | 0.00 | 0.00 | 0.00 | 70 | 1010.1 |
| 20260508190833 | 16 | 129 | 3.2 | 12.9 | 0.00 | 0.00 | 0.00 | 70 | 1010.1 |
| 20260508190329 | 15 | 224 | 4.8 | 12.9 | 0.00 | 0.00 | 0.00 | 71 | 1010.1 |
| 20260508185833 | 15 | 138 | 6.4 | 12.9 | 0.00 | 0.00 | 0.00 | 70 | 1010.2 |
| 20260508185336 | 15 | 139 | 4.8 | 12.9 | 0.00 | 0.00 | 0.00 | 70 | 1010.3 |
| 20260508184833 | 15 | 134 | 3.2 | 12.9 | 0.00 | 0.00 | 0.00 | 70 | 1010.3 |
| 20260508184354 | 15 | 230 | 1.6 | 12.9 | 0.00 | 0.00 | 0.00 | 69 | 1010.4 |
| 20260508183831 | 15 | 151 | 4.8 | 14.5 | 0.00 | 0.00 | 0.00 | 69 | 1010.4 |
| 20260508183334 | 15 | 146 | 4.8 | 14.5 | 0.00 | 0.00 | 0.00 | 69 | 1010.5 |
| 20260508182830 | 15 | 134 | 3.2 | 8.0 | 0.00 | 0.00 | 0.00 | 67 | 1010.5 |
| 20260508182334 | 15 | 117 | 1.6 | 14.5 | 0.00 | 0.00 | 0.00 | 67 | 1010.6 |
| 20260508181900 | 15 | 131 | 4.8 | 14.5 | 0.00 | 0.00 | 0.00 | 68 | 1010.6 |
| 20260508181334 | 15 | 145 | 3.2 | 16.1 | 0.00 | 0.00 | 0.00 | 69 | 1010.6 |
| 20260508180831 | 15 | 123 | 9.7 | 16.1 | 0.00 | 0.00 | 0.00 | 68 | 1010.5 |
| 20260508180335 | 15 | 139 | 3.2 | 12.9 | 0.00 | 0.00 | 0.00 | 68 | 1010.7 |
| 20260508175858 | 14 | 143 | 3.2 | 14.5 | 0.00 | 0.00 | 0.00 | 69 | 1010.8 |
| 20260508175334 | 14 | 131 | 3.2 | 14.5 | 0.00 | 0.00 | 0.00 | 70 | 1010.8 |
| 20260508174838 | 14 | 200 | 1.6 | 8.0 | 0.00 | 0.00 | 0.00 | 70 | 1010.8 |
| 20260508174336 | 14 | 138 | 1.6 | 8.0 | 0.00 | 0.00 | 0.00 | 71 | 1010.9 |
| 20260508173841 | 13 | 139 | 3.2 | 8.0 | 0.00 | 0.00 | 0.00 | 71 | 1011.0 |
| 20260508173336 | 13 | 149 | 3.2 | 12.9 | 0.00 | 0.00 | 0.00 | 70 | 1011.1 |
| 20260508172859 | 13 | 139 | 3.2 | 14.5 | 0.00 | 0.00 | 0.00 | 70 | 1011.1 |
| 20260508172401 | 13 | 147 | 4.8 | 14.5 | 0.00 | 0.00 | 0.00 | 72 | 1011.2 |
| 20260508171817 | 13 | 130 | 4.8 | 14.5 | 0.00 | 0.00 | 0.00 | 73 | 1011.3 |
| 20260508171334 | 13 | 136 | 6.4 | 14.5 | 0.00 | 0.00 | 0.00 | 74 | 1011.4 |
| 20260508170840 | 13 | 116 | 9.7 | 14.5 | 0.00 | 0.00 | 0.00 | 74 | 1011.5 |
| 20260508170341 | 13 | 146 | 9.7 | 16.1 | 0.00 | 0.00 | 0.00 | 75 | 1011.6 |
| 20260508165852 | 13 | 148 | 8.0 | 16.1 | 0.00 | 0.00 | 0.00 | 77 | 1011.8 |
| 20260508165318 | 13 | 218 | 3.2 | 14.5 | 0.00 | 0.00 | 0.00 | 76 | 1011.8 |
| 20260508164830 | 13 | 133 | 6.4 | 14.5 | 0.00 | 0.00 | 0.00 | 77 | 1012.0 |
| 20260508164333 | 13 | 230 | 1.6 | 14.5 | 0.00 | 0.00 | 0.00 | 76 | 1012.0 |
| 20260508163830 | 13 | 164 | 1.6 | 12.9 | 0.00 | 0.00 | 0.00 | 76 | 1012.1 |
| 20260508163335 | 13 | 141 | 3.2 | 16.1 | 0.00 | 0.00 | 0.00 | 76 | 1012.1 |
| 20260508162831 | 13 | 158 | 9.7 | 16.1 | 0.00 | 0.00 | 0.00 | 74 | 1012.1 |
| 20260508162355 | 13 | 131 | 3.2 | 12.9 | 0.00 | 0.00 | 0.00 | 74 | 1012.1 |
| 20260508161830 | 13 | 110 | 3.2 | 11.3 | 0.00 | 0.00 | 0.00 | 74 | 1012.2 |
| 20260508161333 | 13 | 126 | 1.6 | 11.3 | 0.00 | 0.00 | 0.00 | 74 | 1012.2 |
| 20260508160830 | 13 | 227 | 1.6 | 11.3 | 0.00 | 0.00 | 0.00 | 74 | 1012.1 |
| 20260508160332 | 13 | 139 | 1.6 | 6.4 | 0.00 | 0.00 | 0.00 | 73 | 1012.0 |
| 20260508155828 | 13 | 135 | 1.6 | 6.4 | 0.00 | 0.00 | 0.00 | 73 | 1012.0 |
| 20260508155351 | 13 | 233 | 1.6 | 4.8 | 0.00 | 0.00 | 0.00 | 73 | 1012.0 |
| 20260508154827 | 13 | 350 | 0.0 | 1.6 | 0.00 | 0.00 | 0.00 | 70 | 1012.0 |
| 20260508154349 | 12 | 20 | 0.0 | 4.8 | 0.00 | 0.00 | 0.00 | 72 | 1011.9 |
| 20260508153831 | 12 | 21 | 1.6 | 4.8 | 0.00 | 0.00 | 0.00 | 73 | 1012.0 |
| 20260508153346 | 12 | 29 | 1.6 | 4.8 | 0.00 | 0.00 | 0.00 | 71 | 1012.0 |
| 20260508152829 | 12 | 81 | 1.6 | 4.8 | 0.00 | 0.00 | 0.00 | 71 | 1011.9 |
| 20260508152355 | 12 | 66 | 1.6 | 4.8 | 0.00 | 0.00 | 0.00 | 72 | 1012.0 |
| 20260508151831 | 12 | 66 | 1.6 | 6.4 | 0.00 | 0.00 | 0.00 | 73 | 1012.1 |
| 20260508151334 | 12 | 22 | 1.6 | 6.4 | 0.00 | 0.00 | 0.00 | 72 | 1012.1 |
| 20260508150830 | 12 | 32 | 0.0 | 8.0 | 0.00 | 0.00 | 0.00 | 72 | 1012.0 |
| 20260508150335 | 12 | 68 | 3.2 | 8.0 | 0.00 | 0.00 | 0.00 | 73 | 1012.1 |
| 20260508145830 | 12 | 301 | 3.2 | 4.8 | 0.00 | 0.00 | 0.00 | 72 | 1012.2 |
| 20260508145325 | 12 | 351 | 1.6 | 4.8 | 0.00 | 0.00 | 0.00 | 74 | 1012.3 |
| 20260508144828 | 12 | 25 | 1.6 | 4.8 | 0.00 | 0.00 | 0.00 | 76 | 1012.3 |
| 20260508144323 | 12 | 27 | 0.0 | 4.8 | 0.00 | 0.00 | 0.00 | 77 | 1012.3 |
| 20260508143826 | 11 | 34 | 0.0 | 8.0 | 0.00 | 0.00 | 0.00 | 77 | 1012.3 |
| 20260508143322 | 11 | 35 | 4.8 | 8.0 | 0.00 | 0.00 | 0.00 | 77 | 1012.3 |
| 20260508142825 | 11 | 358 | 3.2 | 8.0 | 0.00 | 0.00 | 0.00 | 78 | 1012.3 |
| 20260508142321 | 11 | 317 | 1.6 | 6.4 | 0.00 | 0.00 | 0.00 | 78 | 1012.4 |
| 20260508141817 | 11 | 325 | 1.6 | 4.8 | 0.00 | 0.00 | 0.00 | 79 | 1012.4 |
| 20260508141321 | 11 | 325 | 0.0 | 4.8 | 0.00 | 0.00 | 0.00 | 80 | 1012.5 |
| 20260508140844 | 11 | 11 | 3.2 | 6.4 | 0.00 | 0.00 | 0.00 | 80 | 1012.5 |
| 20260508140408 | 11 | 281 | 1.6 | 6.4 | 0.00 | 0.00 | 0.00 | 80 | 1012.6 |
| 20260508135851 | 10 | 276 | 0.0 | 8.0 | 0.00 | 0.00 | 0.00 | 80 | 1012.6 |
| 20260508135333 | 10 | 272 | 1.6 | 8.0 | 0.00 | 0.00 | 0.00 | 81 | 1012.5 |
| 20260508134830 | 10 | 10 | 1.6 | 8.0 | 0.00 | 0.00 | 0.00 | 83 | 1012.4 |
| 20260508134335 | 10 | 275 | 0.0 | 3.2 | 0.00 | 0.00 | 0.00 | 83 | 1012.5 |
| 20260508133832 | 10 | 274 | 0.0 | 3.2 | 0.00 | 0.00 | 0.00 | 82 | 1012.5 |
| 20260508133335 | 10 | 274 | 0.0 | 3.2 | 0.00 | 0.00 | 0.00 | 83 | 1012.5 |
| 20260508132832 | 10 | 274 | 1.6 | 3.2 | 0.00 | 0.00 | 0.00 | 85 | 1012.6 |
| 20260508132337 | 9 | 274 | 0.0 | 1.6 | 0.00 | 0.00 | 0.00 | 85 | 1012.3 |
| 20260508131832 | 9 | 274 | 0.0 | 3.2 | 0.00 | 0.00 | 0.00 | 86 | 1012.3 |
| 20260508131356 | 9 | 274 | 0.0 | 1.6 | 0.00 | 0.00 | 0.00 | 86 | 1012.5 |
| 20260508130830 | 8 | 274 | 0.0 | 1.6 | 0.00 | 0.00 | 0.00 | 86 | 1012.5 |
| 20260508130335 | 8 | 274 | 0.0 | 3.2 | 0.00 | 0.00 | 0.00 | 86 | 1012.3 |
| 20260508125832 | 8 | 274 | 1.6 | 3.2 | 0.00 | 0.00 | 0.00 | 87 | 1012.5 |
| 20260508125336 | 8 | 274 | 0.0 | 1.6 | 0.00 | 0.00 | 0.00 | 88 | 1012.3 |
| 20260508124853 | 8 | 274 | 0.0 | 3.2 | 0.00 | 0.00 | 0.00 | 88 | 1012.3 |
| 20260508124334 | 8 | 274 | 1.6 | 4.8 | 0.00 | 0.00 | 0.00 | 89 | 1012.4 |
| 20260508123829 | 8 | 274 | 1.6 | 6.4 | 0.00 | 0.00 | 0.00 | 90 | 1012.3 |
| 20260508123333 | 8 | 274 | 1.6 | 6.4 | 0.00 | 0.00 | 0.00 | 90 | 1012.4 |
| 20260508122858 | 7 | 275 | 3.2 | 6.4 | 0.00 | 0.00 | 0.00 | 91 | 1012.5 |
| 20260508122333 | 7 | 257 | 3.2 | 6.4 | 0.00 | 0.00 | 0.00 | 91 | 1012.5 |
| 20260508121838 | 7 | 274 | 1.6 | 8.0 | 0.00 | 0.00 | 0.00 | 91 | 1012.5 |
| 20260508121331 | 7 | 274 | 3.2 | 8.0 | 0.00 | 0.00 | 0.00 | 92 | 1012.4 |
| 20260508120835 | 7 | 272 | 3.2 | 8.0 | 0.00 | 0.00 | 0.00 | 92 | 1012.3 |
| 20260508120333 | 7 | 281 | 1.6 | 6.4 | 0.00 | 0.00 | 0.00 | 92 | 1012.2 |
| 20260508115837 | 7 | 283 | 1.6 | 6.4 | 0.00 | 0.00 | 0.00 | 92 | 1012.1 |
| 20260508115334 | 7 | 267 | 1.6 | 6.4 | 0.00 | 0.00 | 0.00 | 91 | 1012.1 |
| 20260508114853 | 6 | 268 | 3.2 | 6.4 | 0.00 | 0.00 | 0.00 | 91 | 1012.1 |
| 20260508114329 | 6 | 268 | 3.2 | 4.8 | 0.00 | 0.00 | 0.00 | 91 | 1012.1 |
| 20260508113830 | 6 | 267 | 0.0 | 3.2 | 0.00 | 0.00 | 0.00 | 91 | 1012.0 |
| 20260508113327 | 6 | 267 | 0.0 | 1.6 | 0.00 | 0.00 | 0.00 | 90 | 1011.9 |
| 20260508112833 | 6 | 267 | 0.0 | 0.0 | 0.00 | 0.00 | 0.00 | 90 | 1011.9 |
| 20260508112330 | 6 | 267 | 0.0 | 0.0 | 0.00 | 0.00 | 0.00 | 89 | 1012.0 |
| 20260508111834 | 6 | 268 | 0.0 | 0.0 | 0.00 | 0.00 | 0.00 | 88 | 1012.0 |
| 20260508111329 | 6 | 268 | 0.0 | 0.0 | 0.00 | 0.00 | 0.00 | 88 | 1012.0 |
| 20260508110832 | 6 | 267 | 0.0 | 0.0 | 0.00 | 0.00 | 0.00 | 88 | 1011.8 |
| 20260508110329 | 6 | 267 | 0.0 | 0.0 | 0.00 | 0.00 | 0.00 | 88 | 1011.8 |
| 20260508105853 | 6 | 267 | 0.0 | 0.0 | 0.00 | 0.00 | 0.00 | 88 | 1011.7 |
| 20260508105354 | 6 | 267 | 0.0 | 0.0 | 0.00 | 0.00 | 0.00 | 88 | 1011.7 |
| 20260508104829 | 6 | 267 | 0.0 | 0.0 | 0.00 | 0.00 | 0.00 | 88 | 1011.7 |
| 20260508104332 | 6 | 267 | 0.0 | 0.0 | 0.00 | 0.00 | 0.00 | 89 | 1011.7 |
| 20260508103857 | 6 | 267 | 0.0 | 0.0 | 0.00 | 0.00 | 0.00 | 88 | 1011.6 |
| 20260508103332 | 6 | 267 | 0.0 | 0.0 | 0.00 | 0.00 | 0.00 | 88 | 1011.4 |
| 20260508102829 | 6 | 267 | 0.0 | 1.6 | 0.00 | 0.00 | 0.00 | 88 | 1011.4 |
| 20260508102332 | 6 | 267 | 0.0 | 1.6 | 0.00 | 0.00 | 0.00 | 88 | 1011.4 |
| 20260508101829 | 6 | 267 | 0.0 | 1.6 | 0.00 | 0.00 | 0.00 | 87 | 1011.4 |
| 20260508101332 | 6 | 267 | 0.0 | 1.6 | 0.00 | 0.00 | 0.00 | 87 | 1011.6 |
| 20260508100830 | 6 | 267 | 0.0 | 1.6 | 0.00 | 0.00 | 0.00 | 86 | 1011.5 |
| 20260508100333 | 7 | 267 | 0.0 | 0.0 | 0.00 | 0.00 | 0.00 | 86 | 1011.4 |
| 20260508095830 | 7 | 268 | 0.0 | 0.0 | 0.00 | 0.00 | 0.00 | 86 | 1011.4 |
| 20260508095333 | 7 | 268 | 0.0 | 0.0 | 0.00 | 0.00 | 0.00 | 85 | 1011.4 |
| 20260508094829 | 7 | 267 | 0.0 | 0.0 | 0.00 | 0.00 | 0.00 | 86 | 1011.4 |
| 20260508094333 | 7 | 267 | 0.0 | 0.0 | 0.00 | 0.00 | 0.00 | 86 | 1011.5 |
| 20260508093829 | 7 | 267 | 0.0 | 0.0 | 0.00 | 0.00 | 0.00 | 86 | 1011.5 |
| 20260508093333 | 7 | 268 | 0.0 | 1.6 | 0.00 | 0.00 | 0.00 | 86 | 1011.5 |
| 20260508092829 | 7 | 268 | 0.0 | 1.6 | 0.00 | 0.00 | 0.00 | 86 | 1011.5 |
| 20260508092335 | 7 | 267 | 0.0 | 3.2 | 0.00 | 0.00 | 0.00 | 86 | 1011.4 |
| 20260508091832 | 7 | 267 | 0.0 | 6.4 | 0.00 | 0.00 | 0.00 | 86 | 1011.5 |
| 20260508091335 | 7 | 267 | 1.6 | 6.4 | 0.00 | 0.00 | 0.00 | 86 | 1011.4 |
| 20260508090832 | 7 | 268 | 3.2 | 8.0 | 0.00 | 0.00 | 0.00 | 86 | 1011.3 |
| 20260508090326 | 7 | 263 | 3.2 | 11.3 | 0.00 | 0.00 | 0.00 | 86 | 1011.4 |
| 20260508085850 | 7 | 271 | 1.6 | 4.8 | 0.00 | 0.00 | 0.00 | 86 | 1011.4 |
| 20260508085332 | 7 | 271 | 0.0 | 3.2 | 0.00 | 0.00 | 0.00 | 86 | 1011.4 |
| 20260508084830 | 7 | 271 | 1.6 | 6.4 | 0.00 | 0.00 | 0.00 | 85 | 1011.4 |
| 20260508084334 | 7 | 270 | 3.2 | 6.4 | 0.00 | 0.00 | 0.00 | 85 | 1011.4 |
| 20260508083829 | 7 | 244 | 3.2 | 6.4 | 0.00 | 0.00 | 0.00 | 85 | 1011.4 |
| 20260508083325 | 7 | 272 | 1.6 | 6.4 | 0.00 | 0.00 | 0.00 | 85 | 1011.2 |
| 20260508082829 | 7 | 274 | 1.6 | 8.0 | 0.00 | 0.00 | 0.00 | 85 | 1011.3 |
| 20260508082332 | 8 | 262 | 4.8 | 8.0 | 0.00 | 0.00 | 0.00 | 84 | 1011.4 |
| 20260508081828 | 8 | 260 | 1.6 | 8.0 | 0.00 | 0.00 | 0.00 | 84 | 1011.3 |
| 20260508081332 | 8 | 247 | 3.2 | 6.4 | 0.00 | 0.00 | 0.00 | 84 | 1011.4 |
| 20260508080830 | 8 | 259 | 3.2 | 14.5 | 0.00 | 0.00 | 0.00 | 84 | 1011.5 |
| 20260508080332 | 8 | 253 | 6.4 | 14.5 | 0.00 | 0.00 | 0.00 | 84 | 1011.4 |
| 20260508075829 | 8 | 241 | 3.2 | 9.7 | 0.00 | 0.00 | 0.00 | 83 | 1011.5 |
| 20260508075332 | 8 | 256 | 4.8 | 9.7 | 0.00 | 0.00 | 0.00 | 83 | 1011.5 |
| 20260508074829 | 8 | 254 | 4.8 | 9.7 | 0.00 | 0.00 | 0.00 | 83 | 1011.6 |
| 20260508074353 | 8 | 250 | 4.8 | 9.7 | 0.00 | 0.00 | 0.00 | 83 | 1011.5 |
| 20260508073828 | 8 | 249 | 3.2 | 14.5 | 0.00 | 0.00 | 0.00 | 83 | 1011.5 |
| 20260508073331 | 8 | 247 | 4.8 | 14.5 | 0.00 | 0.00 | 0.00 | 82 | 1011.6 |
| 20260508072828 | 8 | 245 | 4.8 | 14.5 | 0.00 | 0.00 | 0.00 | 82 | 1011.6 |
| 20260508072331 | 8 | 233 | 6.4 | 12.9 | 0.00 | 0.00 | 0.00 | 82 | 1011.6 |
| 20260508071855 | 8 | 253 | 6.4 | 12.9 | 0.00 | 0.00 | 0.00 | 81 | 1011.7 |
| 20260508071331 | 8 | 239 | 6.4 | 9.7 | 0.00 | 0.00 | 0.00 | 81 | 1011.7 |
| 20260508070833 | 8 | 255 | 3.2 | 8.0 | 0.00 | 0.00 | 0.00 | 81 | 1011.7 |
| 20260508070330 | 8 | 234 | 3.2 | 14.5 | 0.00 | 0.00 | 0.00 | 81 | 1011.6 |
| 20260508065825 | 8 | 241 | 8.0 | 17.7 | 0.00 | 0.00 | 0.00 | 80 | 1011.6 |
| 20260508065349 | 8 | 239 | 6.4 | 16.1 | 0.00 | 0.00 | 0.00 | 80 | 1011.6 |
| 20260508064852 | 8 | 233 | 9.7 | 14.5 | 0.00 | 0.00 | 0.00 | 80 | 1011.7 |
| 20260508064335 | 8 | 241 | 6.4 | 14.5 | 0.00 | 0.00 | 0.00 | 80 | 1011.5 |
| 20260508063827 | 8 | 227 | 6.4 | 17.7 | 0.00 | 0.00 | 0.00 | 80 | 1011.4 |
| 20260508063331 | 8 | 237 | 9.7 | 17.7 | 0.00 | 0.00 | 0.00 | 81 | 1011.5 |
| 20260508062856 | 8 | 226 | 6.4 | 14.5 | 0.00 | 0.00 | 0.00 | 82 | 1011.5 |
| 20260508062332 | 8 | 233 | 6.4 | 9.7 | 0.00 | 0.00 | 0.00 | 82 | 1011.7 |
| 20260508061828 | 8 | 237 | 6.4 | 9.7 | 0.00 | 0.00 | 0.00 | 82 | 1011.7 |
| 20260508061332 | 8 | 235 | 6.4 | 9.7 | 0.00 | 0.00 | 0.00 | 82 | 1011.7 |
| 20260508060829 | 8 | 245 | 3.2 | 6.4 | 0.00 | 0.00 | 0.00 | 80 | 1011.8 |
| 20260508060332 | 8 | 244 | 0.0 | 3.2 | 0.00 | 0.00 | 0.00 | 78 | 1011.9 |
| 20260508055830 | 8 | 244 | 0.0 | 0.0 | 0.00 | 0.00 | 0.00 | 78 | 1011.9 |
| 20260508055335 | 8 | 244 | 0.0 | 0.0 | 0.00 | 0.00 | 0.00 | 78 | 1012.0 |
| 20260508054831 | 8 | 244 | 0.0 | 0.0 | 0.00 | 0.00 | 0.00 | 78 | 1012.0 |
| 20260508054335 | 8 | 244 | 0.0 | 1.6 | 0.00 | 0.00 | 0.00 | 78 | 1012.0 |
| 20260508053832 | 8 | 244 | 0.0 | 3.2 | 0.00 | 0.00 | 0.00 | 79 | 1012.0 |
| 20260508053337 | 8 | 244 | 0.0 | 3.2 | 0.00 | 0.00 | 0.00 | 79 | 1011.9 |
| 20260508052834 | 8 | 243 | 1.6 | 4.8 | 0.00 | 0.00 | 0.00 | 78 | 1011.8 |
| 20260508052331 | 8 | 243 | 1.6 | 6.4 | 0.00 | 0.00 | 0.00 | 78 | 1011.9 |
| 20260508051834 | 8 | 243 | 3.2 | 6.4 | 0.00 | 0.00 | 0.00 | 78 | 1011.9 |
| 20260508051330 | 8 | 247 | 3.2 | 6.4 | 0.00 | 0.00 | 0.00 | 77 | 1011.9 |
| 20260508050831 | 8 | 247 | 3.2 | 6.4 | 0.00 | 0.00 | 0.00 | 77 | 1011.8 |
| 20260508050335 | 8 | 248 | 4.8 | 8.0 | 0.00 | 0.00 | 0.00 | 77 | 1011.9 |
| 20260508045852 | 8 | 239 | 4.8 | 8.0 | 0.00 | 0.00 | 0.00 | 78 | 1011.9 |
| 20260508045335 | 9 | 239 | 4.8 | 8.0 | 0.00 | 0.00 | 0.00 | 78 | 1011.9 |
| 20260508044832 | 9 | 235 | 3.2 | 8.0 | 0.00 | 0.00 | 0.00 | 77 | 1011.9 |
| 20260508044336 | 9 | 238 | 4.8 | 8.0 | 0.00 | 0.00 | 0.00 | 77 | 1012.0 |
| 20260508043832 | 9 | 242 | 4.8 | 8.0 | 0.00 | 0.00 | 0.00 | 76 | 1012.0 |
| 20260508043335 | 9 | 243 | 3.2 | 8.0 | 0.00 | 0.00 | 0.00 | 76 | 1012.0 |
| 20260508042832 | 9 | 235 | 4.8 | 8.0 | 0.00 | 0.00 | 0.00 | 75 | 1011.9 |
| 20260508042328 | 9 | 249 | 3.2 | 4.8 | 0.00 | 0.00 | 0.00 | 74 | 1011.9 |
| 20260508041832 | 9 | 249 | 3.2 | 6.4 | 0.00 | 0.00 | 0.00 | 74 | 1012.0 |
| 20260508041329 | 9 | 251 | 3.2 | 8.0 | 0.00 | 0.00 | 0.00 | 73 | 1012.0 |
| 20260508040834 | 10 | 233 | 3.2 | 8.0 | 0.00 | 0.00 | 0.00 | 73 | 1012.1 |
| 20260508040332 | 10 | 243 | 4.8 | 8.0 | 0.00 | 0.00 | 0.00 | 73 | 1012.1 |
| 20260508035835 | 10 | 233 | 3.2 | 9.7 | 0.00 | 0.00 | 0.00 | 73 | 1012.2 |
| 20260508035331 | 10 | 253 | 1.6 | 8.0 | 0.00 | 0.00 | 0.00 | 73 | 1012.2 |
| 20260508034834 | 10 | 260 | 3.2 | 9.7 | 0.00 | 0.00 | 0.00 | 72 | 1012.3 |
| 20260508034331 | 10 | 236 | 3.2 | 9.7 | 0.00 | 0.00 | 0.00 | 72 | 1012.3 |
| 20260508033835 | 10 | 250 | 3.2 | 12.9 | 0.00 | 0.00 | 0.00 | 71 | 1012.3 |
| 20260508033331 | 10 | 225 | 4.8 | 12.9 | 0.00 | 0.00 | 0.00 | 70 | 1012.4 |
| 20260508032827 | 10 | 249 | 4.8 | 12.9 | 0.00 | 0.00 | 0.00 | 70 | 1012.3 |
| 20260508032331 | 10 | 245 | 3.2 | 16.1 | 0.00 | 0.00 | 0.00 | 70 | 1012.4 |
| 20260508031828 | 10 | 245 | 6.4 | 16.1 | 0.00 | 0.00 | 0.00 | 69 | 1012.4 |
| 20260508031352 | 10 | 235 | 6.4 | 12.9 | 0.00 | 0.00 | 0.00 | 68 | 1012.3 |
| 20260508030834 | 10 | 242 | 4.8 | 14.5 | 0.00 | 0.00 | 0.00 | 68 | 1012.4 |
| 20260508030329 | 10 | 248 | 4.8 | 14.5 | 0.00 | 0.00 | 0.00 | 67 | 1012.5 |
| 20260508025832 | 10 | 238 | 4.8 | 14.5 | 0.00 | 0.00 | 0.00 | 67 | 1012.4 |
| 20260508025357 | 10 | 257 | 6.4 | 11.3 | 0.00 | 0.00 | 0.00 | 67 | 1012.5 |
| 20260508024832 | 10 | 239 | 6.4 | 17.7 | 0.00 | 0.00 | 0.00 | 67 | 1012.5 |
| 20260508024335 | 10 | 222 | 9.7 | 16.1 | 0.00 | 0.00 | 0.00 | 66 | 1012.5 |
| 20260508023831 | 10 | 246 | 4.8 | 12.9 | 0.00 | 0.00 | 0.00 | 63 | 1012.5 |
| 20260508023329 | 10 | 265 | 4.8 | 14.5 | 0.00 | 0.00 | 0.00 | 64 | 1012.5 |
| 20260508022834 | 10 | 266 | 3.2 | 14.5 | 0.00 | 0.00 | 0.00 | 64 | 1012.4 |
| 20260508022356 | 10 | 262 | 8.0 | 11.3 | 0.00 | 0.00 | 0.00 | 62 | 1012.4 |
| 20260508021831 | 10 | 250 | 6.4 | 16.1 | 0.00 | 0.00 | 0.00 | 63 | 1012.2 |
| 20260508021334 | 10 | 245 | 8.0 | 19.3 | 0.00 | 0.00 | 0.00 | 62 | 1012.2 |
| 20260508020851 | 10 | 256 | 8.0 | 19.3 | 0.00 | 0.00 | 0.00 | 65 | 1012.3 |
| 20260508020334 | 10 | 237 | 6.4 | 12.9 | 0.00 | 0.00 | 0.00 | 66 | 1012.3 |
| 20260508015830 | 10 | 267 | 1.6 | 3.2 | 0.00 | 0.00 | 0.00 | 62 | 1012.1 |
| 20260508015334 | 10 | 267 | 0.0 | 0.0 | 0.00 | 0.00 | 0.00 | 60 | 1012.1 |
| 20260508014831 | 10 | 268 | 0.0 | 0.0 | 0.00 | 0.00 | 0.00 | 58 | 1012.1 |
| 20260508014335 | 10 | 267 | 0.0 | 0.0 | 0.00 | 0.00 | 0.00 | 55 | 1012.0 |
| 20260508013834 | 10 | 267 | 0.0 | 0.0 | 0.00 | 0.00 | 0.00 | 54 | 1012.0 |
| 20260508013336 | 10 | 267 | 0.0 | 0.0 | 0.00 | 0.00 | 0.00 | 54 | 1011.9 |
| 20260508012832 | 10 | 267 | 0.0 | 0.0 | 0.00 | 0.00 | 0.00 | 54 | 1011.8 |
| 20260508012337 | 10 | 267 | 0.0 | 0.0 | 0.00 | 0.00 | 0.00 | 54 | 1011.8 |
| 20260508011831 | 10 | 267 | 0.0 | 0.0 | 0.00 | 0.00 | 0.00 | 55 | 1011.8 |
| 20260508011356 | 11 | 267 | 0.0 | 0.0 | 0.00 | 0.00 | 0.00 | 54 | 1011.8 |
| 20260508010837 | 11 | 267 | 0.0 | 0.0 | 0.00 | 0.00 | 0.00 | 54 | 1011.7 |
| 20260508010333 | 11 | 267 | 0.0 | 0.0 | 0.00 | 0.00 | 0.00 | 56 | 1011.7 |
| 20260508005838 | 11 | 268 | 0.0 | 0.0 | 0.00 | 0.00 | 0.00 | 55 | 1011.7 |
| 20260508005335 | 11 | 267 | 0.0 | 0.0 | 0.00 | 0.00 | 0.00 | 55 | 1011.6 |
| 20260508004833 | 11 | 267 | 0.0 | 3.2 | 0.00 | 0.00 | 0.00 | 55 | 1011.6 |
| 20260508004337 | 11 | 267 | 0.0 | 3.2 | 0.00 | 0.00 | 0.00 | 55 | 1011.6 |
| 20260508003832 | 11 | 268 | 0.0 | 3.2 | 0.00 | 0.00 | 0.00 | 55 | 1011.5 |
| 20260508003335 | 11 | 267 | 0.0 | 3.2 | 0.00 | 0.00 | 0.00 | 54 | 1011.5 |
| 20260508002831 | 11 | 267 | 0.0 | 3.2 | 0.00 | 0.00 | 0.00 | 55 | 1011.5 |
| 20260508002335 | 11 | 267 | 1.6 | 4.8 | 0.00 | 0.00 | 0.00 | 53 | 1011.5 |
| 20260508001833 | 11 | 267 | 1.6 | 4.8 | 0.00 | 0.00 | 0.00 | 54 | 1011.5 |
| 20260508001337 | 11 | 268 | 0.0 | 6.4 | 0.00 | 0.00 | 0.00 | 53 | 1011.5 |
| 20260508000833 | 12 | 266 | 1.6 | 6.4 | 0.00 | 0.00 | 0.00 | 52 | 1011.6 |
| 20260508000339 | 12 | 264 | 3.2 | 8.0 | 0.00 | 0.00 | 0.00 | 52 | 1011.6 |
| 20260507235834 | 12 | 264 | 3.2 | 8.0 | 0.00 | 0.00 | 0.00 | 51 | 1011.7 |
| 20260507235331 | 12 | 266 | 3.2 | 12.9 | 0.00 | 0.00 | 0.00 | 50 | 1011.6 |
| 20260507234854 | 12 | 266 | 4.8 | 12.9 | 0.00 | 0.00 | 0.00 | 50 | 1011.5 |
| 20260507234336 | 12 | 269 | 4.8 | 8.0 | 0.00 | 0.00 | 0.00 | 48 | 1011.6 |
| 20260507233832 | 12 | 279 | 3.2 | 11.3 | 0.00 | 0.00 | 0.00 | 48 | 1011.5 |
| 20260507233337 | 12 | 264 | 6.4 | 16.1 | 0.00 | 0.00 | 0.00 | 47 | 1011.6 |
| 20260507232835 | 12 | 262 | 6.4 | 16.1 | 0.00 | 0.00 | 0.00 | 47 | 1011.6 |
| 20260507232337 | 12 | 264 | 6.4 | 17.7 | 0.00 | 0.00 | 0.00 | 48 | 1011.5 |
| 20260507231833 | 12 | 249 | 6.4 | 17.7 | 0.00 | 0.00 | 0.00 | 47 | 1011.6 |
| 20260507231354 | 12 | 254 | 9.7 | 17.7 | 0.00 | 0.00 | 0.00 | 47 | 1011.5 |
| 20260507230837 | 12 | 235 | 6.4 | 14.5 | 0.00 | 0.00 | 0.00 | 46 | 1011.5 |
| 20260507230332 | 12 | 270 | 8.0 | 19.3 | 0.00 | 0.00 | 0.00 | 46 | 1011.4 |
| 20260507225855 | 12 | 259 | 8.0 | 19.3 | 0.00 | 0.00 | 0.00 | 46 | 1011.5 |
| 20260507225357 | 12 | 251 | 8.0 | 22.5 | 0.00 | 0.00 | 0.00 | 47 | 1011.6 |
| 20260507224834 | 12 | 239 | 9.7 | 22.5 | 0.00 | 0.00 | 0.00 | 46 | 1011.6 |
| 20260507224357 | 12 | 257 | 9.7 | 20.9 | 0.00 | 0.00 | 0.00 | 46 | 1011.8 |
| 20260507223832 | 12 | 274 | 11.3 | 19.3 | 0.00 | 0.00 | 0.00 | 46 | 1011.8 |
| 20260507223334 | 12 | 245 | 9.7 | 19.3 | 0.00 | 0.00 | 0.00 | 47 | 1011.8 |
| 20260507222837 | 12 | 245 | 9.7 | 22.5 | 0.00 | 0.00 | 0.00 | 45 | 1011.9 |
| 20260507222333 | 12 | 246 | 9.7 | 22.5 | 0.00 | 0.00 | 0.00 | 47 | 1011.9 |
| 20260507221830 | 13 | 258 | 9.7 | 24.1 | 0.00 | 0.00 | 0.00 | 45 | 1011.8 |
| 20260507221353 | 13 | 261 | 12.9 | 24.1 | 0.00 | 0.00 | 0.00 | 47 | 1011.8 |
| 20260507220834 | 12 | 279 | 6.4 | 19.3 | 0.00 | 0.00 | 0.00 | 48 | 1011.7 |
| 20260507220336 | 12 | 259 | 8.0 | 19.3 | 0.00 | 0.00 | 0.00 | 47 | 1011.8 |
| 20260507215831 | 12 | 239 | 11.3 | 19.3 | 0.00 | 0.00 | 0.00 | 47 | 1011.8 |
| 20260507215355 | 12 | 274 | 8.0 | 24.1 | 0.00 | 0.00 | 0.00 | 48 | 1011.7 |
| 20260507214836 | 12 | 249 | 11.3 | 24.1 | 0.00 | 0.00 | 0.00 | 45 | 1011.8 |
| 20260507214352 | 12 | 247 | 11.3 | 24.1 | 0.00 | 0.00 | 0.00 | 46 | 1011.8 |
| 20260507213835 | 12 | 249 | 14.5 | 24.1 | 0.00 | 0.00 | 0.00 | 46 | 1011.7 |
| 20260507213333 | 12 | 275 | 11.3 | 25.7 | 0.00 | 0.00 | 0.00 | 47 | 1011.8 |
| 20260507212836 | 12 | 271 | 8.0 | 25.7 | 0.00 | 0.00 | 0.00 | 47 | 1011.7 |
| 20260507212332 | 13 | 261 | 12.9 | 27.4 | 0.00 | 0.00 | 0.00 | 48 | 1011.7 |
| 20260507211836 | 13 | 259 | 14.5 | 35.4 | 0.00 | 0.00 | 0.00 | 47 | 1011.7 |
| 20260507211334 | 13 | 272 | 14.5 | 35.4 | 0.00 | 0.00 | 0.00 | 47 | 1011.8 |
| 20260507210837 | 13 | 247 | 12.9 | 25.7 | 0.00 | 0.00 | 0.00 | 47 | 1011.8 |
| 20260507210333 | 13 | 263 | 11.3 | 25.7 | 0.00 | 0.00 | 0.00 | 50 | 1011.7 |
| 20260507205830 | 13 | 234 | 11.3 | 27.4 | 0.00 | 0.00 | 0.00 | 48 | 1011.7 |
| 20260507205333 | 13 | 239 | 11.3 | 27.4 | 0.00 | 0.00 | 0.00 | 47 | 1011.7 |
| 20260507204830 | 13 | 261 | 12.9 | 32.2 | 0.00 | 0.00 | 0.00 | 49 | 1011.8 |
| 20260507204333 | 13 | 246 | 14.5 | 32.2 | 0.00 | 0.00 | 0.00 | 46 | 1011.7 |
| 20260507203829 | 13 | 248 | 14.5 | 32.2 | 0.00 | 0.00 | 0.00 | 49 | 1011.8 |
| 20260507203333 | 13 | 256 | 19.3 | 32.2 | 0.00 | 0.00 | 0.00 | 47 | 1011.8 |
| 20260507202859 | 13 | 269 | 19.3 | 25.7 | 0.00 | 0.00 | 0.00 | 49 | 1011.8 |
| 20260507202334 | 13 | 249 | 12.9 | 25.7 | 0.00 | 0.00 | 0.00 | 47 | 1011.8 |
| 20260507201830 | 13 | 242 | 11.3 | 22.5 | 0.00 | 0.00 | 0.00 | 46 | 1011.8 |
| 20260507201333 | 13 | 251 | 11.3 | 35.4 | 0.00 | 0.00 | 0.00 | 48 | 1011.7 |
| 20260507200829 | 13 | 265 | 19.3 | 35.4 | 0.00 | 0.00 | 0.00 | 48 | 1011.8 |
| 20260507200332 | 12 | 245 | 11.3 | 22.5 | 0.00 | 0.00 | 0.00 | 50 | 1011.6 |
| 20260507195829 | 12 | 253 | 6.4 | 24.1 | 0.00 | 0.03 | 0.00 | 49 | 1011.7 |
| 20260507195330 | 12 | 229 | 16.1 | 24.1 | 0.00 | 0.03 | 0.00 | 48 | 1011.7 |
| 20260507194834 | 12 | 254 | 14.5 | 24.1 | 0.00 | 0.03 | 0.00 | 48 | 1011.7 |